Year,Month,Day,Hour,Minute,Value (Times are PST for barometer in hPa)
2011,11,23,00,00,992.96
2011,11,23,00,01,992.96
2011,11,23,00,02,992.96
2011,11,23,00,03,992.92
2011,11,23,00,04,992.96
2011,11,23,00,05,992.99
2011,11,23,00,06,992.96
2011,11,23,00,07,992.92
2011,11,23,00,08,992.92
2011,11,23,00,09,992.89
2011,11,23,00,10,992.89
2011,11,23,00,11,992.92
2011,11,23,00,12,992.92
2011,11,23,00,13,992.86
2011,11,23,00,14,992.86
2011,11,23,00,15,992.89
2011,11,23,00,16,992.82
2011,11,23,00,17,992.82
2011,11,23,00,18,992.75
2011,11,23,00,19,992.79
2011,11,23,00,20,992.75
2011,11,23,00,21,992.75
2011,11,23,00,22,992.69
2011,11,23,00,23,992.65
2011,11,23,00,24,992.62
2011,11,23,00,25,992.62
2011,11,23,00,26,992.62
2011,11,23,00,27,992.58
2011,11,23,00,28,992.55
2011,11,23,00,29,992.58
2011,11,23,00,30,992.58
2011,11,23,00,31,992.62
2011,11,23,00,32,992.62
2011,11,23,00,33,992.58
2011,11,23,00,34,992.62
2011,11,23,00,35,992.69
2011,11,23,00,36,992.72
2011,11,23,00,37,992.72
2011,11,23,00,38,992.69
2011,11,23,00,39,992.65
2011,11,23,00,40,992.65
2011,11,23,00,41,992.65
2011,11,23,00,42,992.69
2011,11,23,00,43,992.69
2011,11,23,00,44,992.75
2011,11,23,00,45,992.69
2011,11,23,00,46,992.62
2011,11,23,00,47,992.55
2011,11,23,00,48,992.62
2011,11,23,00,49,992.65
2011,11,23,00,50,992.69
2011,11,23,00,51,992.69
2011,11,23,00,52,992.72
2011,11,23,00,53,992.72
2011,11,23,00,54,992.75
2011,11,23,00,55,992.72
2011,11,23,00,56,992.75
2011,11,23,00,57,992.72
2011,11,23,00,58,992.72
2011,11,23,00,59,992.72
2011,11,23,01,00,992.72
2011,11,23,01,01,992.69
2011,11,23,01,02,992.69
2011,11,23,01,03,992.72
2011,11,23,01,04,992.69
2011,11,23,01,05,992.65
2011,11,23,01,06,992.65
2011,11,23,01,07,992.69
2011,11,23,01,08,992.72
2011,11,23,01,09,992.75
2011,11,23,01,10,992.79
2011,11,23,01,11,992.72
2011,11,23,01,12,992.72
2011,11,23,01,13,992.72
2011,11,23,01,14,992.72
2011,11,23,01,15,992.79
2011,11,23,01,16,992.75
2011,11,23,01,17,992.72
2011,11,23,01,18,992.79
2011,11,23,01,19,992.72
2011,11,23,01,20,992.79
2011,11,23,01,21,992.79
2011,11,23,01,22,992.79
2011,11,23,01,23,992.75
2011,11,23,01,24,992.75
2011,11,23,01,25,992.75
2011,11,23,01,26,992.72
2011,11,23,01,27,992.75
2011,11,23,01,28,992.79
2011,11,23,01,29,992.86
2011,11,23,01,30,992.89
2011,11,23,01,31,992.89
2011,11,23,01,32,992.86
2011,11,23,01,33,992.82
2011,11,23,01,34,992.82
2011,11,23,01,35,992.79
2011,11,23,01,36,992.82
2011,11,23,01,37,992.82
2011,11,23,01,38,992.82
2011,11,23,01,39,992.82
2011,11,23,01,40,992.86
2011,11,23,01,41,992.86
2011,11,23,01,42,992.89
2011,11,23,01,43,992.96
2011,11,23,01,44,992.99
2011,11,23,01,45,992.92
2011,11,23,01,46,992.96
2011,11,23,01,47,992.92
2011,11,23,01,48,992.89
2011,11,23,01,49,992.92
2011,11,23,01,50,992.86
2011,11,23,01,51,992.92
2011,11,23,01,52,992.92
2011,11,23,01,53,992.89
2011,11,23,01,54,992.89
2011,11,23,01,55,992.96
2011,11,23,01,56,992.89
2011,11,23,01,57,992.96
2011,11,23,01,58,992.92
2011,11,23,01,59,992.99
2011,11,23,02,00,992.99
2011,11,23,02,01,992.92
2011,11,23,02,02,993.03
2011,11,23,02,03,992.96
2011,11,23,02,04,992.99
2011,11,23,02,05,993.06
2011,11,23,02,06,993.09
2011,11,23,02,07,993.06
2011,11,23,02,08,993.09
2011,11,23,02,09,993.09
2011,11,23,02,10,993.03
2011,11,23,02,11,993.06
2011,11,23,02,12,992.99
2011,11,23,02,13,993.09
2011,11,23,02,14,993.09
2011,11,23,02,15,993.09
2011,11,23,02,16,993.09
2011,11,23,02,17,993.06
2011,11,23,02,18,993.06
2011,11,23,02,19,993.06
2011,11,23,02,20,993.03
2011,11,23,02,21,993.06
2011,11,23,02,22,993.13
2011,11,23,02,23,993.06
2011,11,23,02,24,993.13
2011,11,23,02,25,993.13
2011,11,23,02,26,993.19
2011,11,23,02,27,993.19
2011,11,23,02,28,993.19
2011,11,23,02,29,993.19
2011,11,23,02,30,993.13
2011,11,23,02,31,993.16
2011,11,23,02,32,993.16
2011,11,23,02,33,993.16
2011,11,23,02,34,993.16
2011,11,23,02,35,993.16
2011,11,23,02,36,993.23
2011,11,23,02,37,993.26
2011,11,23,02,38,993.26
2011,11,23,02,39,993.26
2011,11,23,02,40,993.19
2011,11,23,02,41,993.16
2011,11,23,02,42,993.16
2011,11,23,02,43,993.30
2011,11,23,02,44,993.30
2011,11,23,02,45,993.30
2011,11,23,02,46,993.26
2011,11,23,02,47,993.19
2011,11,23,02,48,993.16
2011,11,23,02,49,993.16
2011,11,23,02,50,993.19
2011,11,23,02,51,993.16
2011,11,23,02,52,993.16
2011,11,23,02,53,993.09
2011,11,23,02,54,993.13
2011,11,23,02,55,993.09
2011,11,23,02,56,993.13
2011,11,23,02,57,993.13
2011,11,23,02,58,993.13
2011,11,23,02,59,993.13
2011,11,23,03,00,993.09
2011,11,23,03,01,993.09
2011,11,23,03,02,993.13
2011,11,23,03,06,993.23
2011,11,23,03,07,993.23
2011,11,23,03,08,993.19
2011,11,23,03,09,993.23
2011,11,23,03,10,993.23
2011,11,23,03,11,993.23
2011,11,23,03,12,993.30
2011,11,23,03,13,993.33
2011,11,23,03,14,993.36
2011,11,23,03,15,993.33
2011,11,23,03,16,993.37
2011,11,23,03,17,993.43
2011,11,23,03,18,993.43
2011,11,23,03,19,993.48
2011,11,23,03,20,993.57
2011,11,23,03,21,993.60
2011,11,23,03,22,993.60
2011,11,23,03,23,993.60
2011,11,23,03,24,993.63
2011,11,23,03,25,993.60
2011,11,23,03,26,993.60
2011,11,23,03,27,993.63
2011,11,23,03,28,993.60
2011,11,23,03,29,993.57
2011,11,23,03,30,993.62
2011,11,23,03,31,993.53
2011,11,23,03,32,993.53
2011,11,23,03,33,993.57
2011,11,23,03,34,993.57
2011,11,23,03,35,993.53
2011,11,23,03,36,993.50
2011,11,23,03,37,993.47
2011,11,23,03,38,993.47
2011,11,23,03,39,993.47
2011,11,23,03,40,993.46
2011,11,23,03,41,993.40
2011,11,23,03,42,993.32
2011,11,23,03,43,993.23
2011,11,23,03,44,993.26
2011,11,23,03,45,993.26
2011,11,23,03,46,993.26
2011,11,23,03,47,993.27
2011,11,23,03,48,993.33
2011,11,23,03,49,993.33
2011,11,23,03,50,993.33
2011,11,23,03,51,993.33
2011,11,23,03,52,993.33
2011,11,23,03,53,993.33
2011,11,23,03,54,993.33
2011,11,23,03,55,993.36
2011,11,23,03,56,993.36
2011,11,23,03,57,993.30
2011,11,23,03,58,993.30
2011,11,23,03,59,993.32
2011,11,23,04,00,993.26
2011,11,23,04,01,993.26
2011,11,23,04,02,993.26
2011,11,23,04,03,993.23
2011,11,23,04,04,993.19
2011,11,23,04,05,993.19
2011,11,23,04,06,993.19
2011,11,23,04,07,993.19
2011,11,23,04,08,993.23
2011,11,23,04,09,993.23
2011,11,23,04,10,993.23
2011,11,23,04,11,993.19
2011,11,23,04,12,993.19
2011,11,23,04,13,993.19
2011,11,23,04,14,993.23
2011,11,23,04,15,993.26
2011,11,23,04,16,993.27
2011,11,23,04,17,993.34
2011,11,23,04,18,993.43
2011,11,23,04,19,993.43
2011,11,23,04,20,993.46
2011,11,23,04,21,993.36
2011,11,23,04,22,993.37
2011,11,23,04,23,993.43
2011,11,23,04,24,993.44
2011,11,23,04,25,993.50
2011,11,23,04,26,993.53
2011,11,23,04,27,993.50
2011,11,23,04,28,993.47
2011,11,23,04,29,993.50
2011,11,23,04,30,993.50
2011,11,23,04,31,993.47
2011,11,23,04,32,993.50
2011,11,23,04,33,993.53
2011,11,23,04,34,993.57
2011,11,23,04,35,993.50
2011,11,23,04,36,993.50
2011,11,23,04,37,993.50
2011,11,23,04,38,993.53
2011,11,23,04,39,993.57
2011,11,23,04,40,993.53
2011,11,23,04,41,993.53
2011,11,23,04,42,993.50
2011,11,23,04,43,993.53
2011,11,23,04,44,993.57
2011,11,23,04,45,993.60
2011,11,23,04,46,993.60
2011,11,23,04,47,993.57
2011,11,23,04,48,993.60
2011,11,23,04,49,993.60
2011,11,23,04,50,993.64
2011,11,23,04,51,993.70
2011,11,23,04,52,993.70
2011,11,23,04,53,993.74
2011,11,23,04,54,993.70
2011,11,23,04,55,993.69
2011,11,23,04,56,993.64
2011,11,23,04,57,993.74
2011,11,23,04,58,993.74
2011,11,23,04,59,993.67
2011,11,23,05,00,993.63
2011,11,23,05,01,993.67
2011,11,23,05,02,993.67
2011,11,23,05,03,993.71
2011,11,23,05,04,993.80
2011,11,23,05,05,993.77
2011,11,23,05,06,993.80
2011,11,23,05,07,993.85
2011,11,23,05,08,993.94
2011,11,23,05,09,993.97
2011,11,23,05,10,993.97
2011,11,23,05,11,993.97
2011,11,23,05,12,994.01
2011,11,23,05,13,994.01
2011,11,23,05,14,994.04
2011,11,23,05,15,994.07
2011,11,23,05,16,994.07
2011,11,23,05,17,994.14
2011,11,23,05,18,994.14
2011,11,23,05,19,994.14
2011,11,23,05,20,994.20
2011,11,23,05,21,994.14
2011,11,23,05,22,994.19
2011,11,23,05,23,994.35
2011,11,23,05,24,994.35
2011,11,23,05,25,994.38
2011,11,23,05,26,994.38
2011,11,23,05,27,994.41
2011,11,23,05,28,994.38
2011,11,23,05,29,994.38
2011,11,23,05,30,994.38
2011,11,23,05,31,994.38
2011,11,23,05,32,994.38
2011,11,23,05,33,994.38
2011,11,23,05,34,994.35
2011,11,23,05,35,994.35
2011,11,23,05,36,994.35
2011,11,23,05,37,994.31
2011,11,23,05,38,994.31
2011,11,23,05,39,994.31
2011,11,23,05,40,994.31
2011,11,23,05,41,994.28
2011,11,23,05,42,994.28
2011,11,23,05,43,994.28
2011,11,23,05,44,994.31
2011,11,23,05,45,994.32
2011,11,23,05,46,994.41
2011,11,23,05,47,994.45
2011,11,23,05,48,994.38
2011,11,23,05,49,994.41
2011,11,23,05,50,994.38
2011,11,23,05,51,994.38
2011,11,23,05,52,994.35
2011,11,23,05,53,994.35
2011,11,23,05,54,994.35
2011,11,23,05,55,994.39
2011,11,23,05,56,994.52
2011,11,23,05,57,994.52
2011,11,23,05,58,994.58
2011,11,23,05,59,994.62
2011,11,23,06,00,994.58
2011,11,23,06,01,994.58
2011,11,23,06,02,994.66
2011,11,23,06,03,994.72
2011,11,23,06,04,994.75
2011,11,23,06,05,994.79
2011,11,23,06,06,994.85
2011,11,23,06,07,994.89
2011,11,23,06,08,994.92
2011,11,23,06,09,994.92
2011,11,23,06,10,994.99
2011,11,23,06,11,994.96
2011,11,23,06,12,994.92
2011,11,23,06,13,994.92
2011,11,23,06,14,994.92
2011,11,23,06,15,994.85
2011,11,23,06,16,994.85
2011,11,23,06,17,994.92
2011,11,23,06,18,994.96
2011,11,23,06,19,994.92
2011,11,23,06,20,994.96
2011,11,23,06,21,994.99
2011,11,23,06,22,994.99
2011,11,23,06,23,994.99
2011,11,23,06,24,995.07
2011,11,23,06,25,995.26
2011,11,23,06,26,995.33
2011,11,23,06,27,995.28
2011,11,23,06,28,995.22
2011,11,23,06,29,995.12
2011,11,23,06,30,995.19
2011,11,23,06,31,995.22
2011,11,23,06,32,995.16
2011,11,23,06,33,995.09
2011,11,23,06,34,995.09
2011,11,23,06,35,995.09
2011,11,23,06,36,995.06
2011,11,23,06,37,995.06
2011,11,23,06,38,995.06
2011,11,23,06,39,994.99
2011,11,23,06,40,995.02
2011,11,23,06,41,995.06
2011,11,23,06,42,995.09
2011,11,23,06,43,995.19
2011,11,23,06,44,995.19
2011,11,23,06,45,995.24
2011,11,23,06,46,995.29
2011,11,23,06,47,995.26
2011,11,23,06,48,995.19
2011,11,23,06,49,995.12
2011,11,23,06,50,995.16
2011,11,23,06,51,995.16
2011,11,23,06,52,995.23
2011,11,23,06,53,995.16
2011,11,23,06,54,995.12
2011,11,23,06,55,995.19
2011,11,23,06,56,995.27
2011,11,23,06,57,995.36
2011,11,23,06,58,995.43
2011,11,23,06,59,995.43
2011,11,23,07,00,995.50
2011,11,23,07,01,995.43
2011,11,23,07,02,995.43
2011,11,23,07,03,995.43
2011,11,23,07,04,995.50
2011,11,23,07,05,995.56
2011,11,23,07,06,995.60
2011,11,23,07,07,995.63
2011,11,23,07,08,995.63
2011,11,23,07,09,995.63
2011,11,23,07,10,995.60
2011,11,23,07,11,995.63
2011,11,23,07,12,995.67
2011,11,23,07,13,995.73
2011,11,23,07,14,995.80
2011,11,23,07,15,995.73
2011,11,23,07,16,995.77
2011,11,23,07,17,995.84
2011,11,23,07,18,995.84
2011,11,23,07,19,995.94
2011,11,23,07,20,995.97
2011,11,23,07,21,995.94
2011,11,23,07,22,995.94
2011,11,23,07,23,996.01
2011,11,23,07,24,996.04
2011,11,23,07,25,995.97
2011,11,23,07,26,995.97
2011,11,23,07,27,996.01
2011,11,23,07,28,996.04
2011,11,23,07,29,996.07
2011,11,23,07,30,996.14
2011,11,23,07,31,996.21
2011,11,23,07,32,996.28
2011,11,23,07,33,996.31
2011,11,23,07,34,996.34
2011,11,23,07,35,996.34
2011,11,23,07,36,996.38
2011,11,23,07,37,996.45
2011,11,23,07,38,996.48
2011,11,23,07,39,996.51
2011,11,23,07,40,996.55
2011,11,23,07,41,996.55
2011,11,23,07,42,996.61
2011,11,23,07,43,996.68
2011,11,23,07,44,996.68
2011,11,23,07,45,996.72
2011,11,23,07,46,996.72
2011,11,23,07,47,996.65
2011,11,23,07,48,996.68
2011,11,23,07,49,996.68
2011,11,23,07,50,996.72
2011,11,23,07,51,996.75
2011,11,23,07,52,996.75
2011,11,23,07,53,996.78
2011,11,23,07,54,996.82
2011,11,23,07,55,996.85
2011,11,23,07,56,996.85
2011,11,23,07,57,996.85
2011,11,23,07,58,996.85
2011,11,23,07,59,996.89
2011,11,23,08,00,996.89
2011,11,23,08,01,996.92
2011,11,23,08,02,996.95
2011,11,23,08,03,996.95
2011,11,23,08,04,996.99
2011,11,23,08,05,997.02
2011,11,23,08,06,997.02
2011,11,23,08,07,997.05
2011,11,23,08,08,997.02
2011,11,23,08,09,997.02
2011,11,23,08,10,997.05
2011,11,23,08,11,997.11
2011,11,23,08,12,997.02
2011,11,23,08,13,997.05
2011,11,23,08,14,997.09
2011,11,23,08,15,997.09
2011,11,23,08,16,997.09
2011,11,23,08,17,997.12
2011,11,23,08,18,997.12
2011,11,23,08,19,997.09
2011,11,23,08,20,997.12
2011,11,23,08,21,997.19
2011,11,23,08,22,997.16
2011,11,23,08,23,997.19
2011,11,23,08,24,997.19
2011,11,23,08,25,997.26
2011,11,23,08,26,997.26
2011,11,23,08,27,997.29
2011,11,23,08,28,997.33
2011,11,23,08,29,997.39
2011,11,23,08,30,997.39
2011,11,23,08,31,997.39
2011,11,23,08,32,997.46
2011,11,23,08,33,997.50
2011,11,23,08,34,997.46
2011,11,23,08,35,997.50
2011,11,23,08,36,997.56
2011,11,23,08,37,997.56
2011,11,23,08,38,997.60
2011,11,23,08,39,997.60
2011,11,23,08,40,997.60
2011,11,23,08,41,997.60
2011,11,23,08,42,997.56
2011,11,23,08,43,997.53
2011,11,23,08,44,997.50
2011,11,23,08,45,997.56
2011,11,23,08,46,997.60
2011,11,23,08,47,997.60
2011,11,23,08,48,997.66
2011,11,23,08,49,997.77
2011,11,23,08,50,997.80
2011,11,23,08,51,997.87
2011,11,23,08,52,997.94
2011,11,23,08,53,997.94
2011,11,23,08,54,998.00
2011,11,23,08,55,998.04
2011,11,23,08,56,998.10
2011,11,23,08,57,998.04
2011,11,23,08,58,998.00
2011,11,23,08,59,998.00
2011,11,23,09,00,997.94
2011,11,23,09,01,997.97
2011,11,23,09,02,997.97
2011,11,23,09,03,998.00
2011,11,23,09,04,998.00
2011,11,23,09,05,998.04
2011,11,23,09,06,998.10
2011,11,23,09,07,998.14
2011,11,23,09,08,998.21
2011,11,23,09,09,998.14
2011,11,23,09,10,998.17
2011,11,23,09,11,998.21
2011,11,23,09,12,998.21
2011,11,23,09,13,998.24
2011,11,23,09,14,998.27
2011,11,23,09,15,998.34
2011,11,23,09,16,998.38
2011,11,23,09,17,998.38
2011,11,23,09,18,998.38
2011,11,23,09,19,998.44
2011,11,23,09,20,998.51
2011,11,23,09,21,998.54
2011,11,23,09,22,998.54
2011,11,23,09,23,998.51
2011,11,23,09,24,998.51
2011,11,23,09,25,998.58
2011,11,23,09,26,998.65
2011,11,23,09,27,998.61
2011,11,23,09,28,998.65
2011,11,23,09,29,998.71
2011,11,23,09,30,998.71
2011,11,23,09,31,998.75
2011,11,23,09,32,998.78
2011,11,23,09,33,998.78
2011,11,23,09,34,998.78
2011,11,23,09,35,998.82
2011,11,23,09,36,998.88
2011,11,23,09,37,998.88
2011,11,23,09,38,998.85
2011,11,23,09,39,998.88
2011,11,23,09,40,998.88
2011,11,23,09,41,998.88
2011,11,23,09,42,998.95
2011,11,23,09,43,998.92
2011,11,23,09,44,998.95
2011,11,23,09,45,998.95
2011,11,23,09,46,998.99
2011,11,23,09,47,998.99
2011,11,23,09,48,999.02
2011,11,23,09,49,998.99
2011,11,23,09,50,998.95
2011,11,23,09,51,998.99
2011,11,23,09,52,999.02
2011,11,23,09,53,998.99
2011,11,23,09,54,998.99
2011,11,23,09,55,998.95
2011,11,23,09,56,999.02
2011,11,23,09,57,998.99
2011,11,23,09,58,999.02
2011,11,23,09,59,999.05
2011,11,23,10,00,999.05
2011,11,23,10,01,999.12
2011,11,23,10,02,999.12
2011,11,23,10,03,999.19
2011,11,23,10,04,999.15
2011,11,23,10,05,999.19
2011,11,23,10,06,999.22
2011,11,23,10,07,999.29
2011,11,23,10,08,999.26
2011,11,23,10,09,999.22
2011,11,23,10,10,999.26
2011,11,23,10,11,999.29
2011,11,23,10,12,999.29
2011,11,23,10,13,999.26
2011,11,23,10,14,999.26
2011,11,23,10,15,999.36
2011,11,23,10,16,999.36
2011,11,23,10,17,999.36
2011,11,23,10,18,999.36
2011,11,23,10,19,999.43
2011,11,23,10,20,999.46
2011,11,23,10,21,999.53
2011,11,23,10,22,999.53
2011,11,23,10,23,999.56
2011,11,23,10,24,999.56
2011,11,23,10,25,999.53
2011,11,23,10,26,999.56
2011,11,23,10,27,999.59
2011,11,23,10,28,999.56
2011,11,23,10,29,999.56
2011,11,23,10,30,999.59
2011,11,23,10,31,999.59
2011,11,23,10,32,999.56
2011,11,23,10,33,999.59
2011,11,23,10,34,999.66
2011,11,23,10,35,999.66
2011,11,23,10,36,999.70
2011,11,23,10,37,999.73
2011,11,23,10,38,999.73
2011,11,23,10,39,999.70
2011,11,23,10,40,999.73
2011,11,23,10,41,999.80
2011,11,23,10,42,999.80
2011,11,23,10,43,999.80
2011,11,23,10,44,999.83
2011,11,23,10,45,999.83
2011,11,23,10,46,999.87
2011,11,23,10,47,999.83
2011,11,23,10,48,999.87
2011,11,23,10,49,999.93
2011,11,23,10,50,1000.07
2011,11,23,10,51,1000.03
2011,11,23,10,52,1000.10
2011,11,23,10,53,1000.20
2011,11,23,10,54,1000.20
2011,11,23,10,55,1000.27
2011,11,23,10,56,1000.27
2011,11,23,10,57,1000.27
2011,11,23,10,58,1000.31
2011,11,23,10,59,1000.27
2011,11,23,11,00,1000.31
2011,11,23,11,01,1000.31
2011,11,23,11,02,1000.37
2011,11,23,11,03,1000.41
2011,11,23,11,04,1000.37
2011,11,23,11,05,1000.44
2011,11,23,11,06,1000.44
2011,11,23,11,07,1000.37
2011,11,23,11,08,1000.44
2011,11,23,11,09,1000.37
2011,11,23,11,10,1000.37
2011,11,23,11,11,1000.44
2011,11,23,11,12,1000.48
2011,11,23,11,13,1000.48
2011,11,23,11,14,1000.54
2011,11,23,11,15,1000.51
2011,11,23,11,16,1000.54
2011,11,23,11,17,1000.54
2011,11,23,11,18,1000.61
2011,11,23,11,19,1000.58
2011,11,23,11,20,1000.61
2011,11,23,11,21,1000.68
2011,11,23,11,22,1000.75
2011,11,23,11,23,1000.75
2011,11,23,11,24,1000.81
2011,11,23,11,25,1000.81
2011,11,23,11,26,1000.88
2011,11,23,11,27,1000.88
2011,11,23,11,28,1000.92
2011,11,23,11,29,1000.92
2011,11,23,11,30,1000.95
2011,11,23,11,31,1000.95
2011,11,23,11,32,1000.88
2011,11,23,11,33,1000.92
2011,11,23,11,34,1000.95
2011,11,23,11,35,1000.95
2011,11,23,11,36,1000.98
2011,11,23,11,37,1001.08
2011,11,23,11,38,1001.08
2011,11,23,11,39,1001.03
2011,11,23,11,40,1001.12
2011,11,23,11,41,1001.12
2011,11,23,11,42,1001.08
2011,11,23,11,43,1001.08
2011,11,23,11,44,1001.08
2011,11,23,11,45,1001.08
2011,11,23,11,46,1001.08
2011,11,23,11,47,1001.08
2011,11,23,11,48,1001.12
2011,11,23,11,49,1001.05
2011,11,23,11,50,1001.05
2011,11,23,11,51,1001.08
2011,11,23,11,52,1001.08
2011,11,23,11,53,1001.12
2011,11,23,11,54,1001.12
2011,11,23,11,55,1001.08
2011,11,23,11,56,1001.08
2011,11,23,11,57,1001.08
2011,11,23,11,58,1001.08
2011,11,23,11,59,1001.08
2011,11,23,12,00,1001.08
2011,11,23,12,01,1001.08
2011,11,23,12,02,1001.08
2011,11,23,12,03,1001.08
2011,11,23,12,04,1001.08
2011,11,23,12,05,1001.12
2011,11,23,12,06,1001.12
2011,11,23,12,07,1001.19
2011,11,23,12,08,1001.12
2011,11,23,12,09,1001.15
2011,11,23,12,10,1001.19
2011,11,23,12,11,1001.12
2011,11,23,12,12,1001.15
2011,11,23,12,13,1001.19
2011,11,23,12,14,1001.19
2011,11,23,12,15,1001.19
2011,11,23,12,16,1001.19
2011,11,23,12,17,1001.15
2011,11,23,12,18,1001.19
2011,11,23,12,19,1001.15
2011,11,23,12,20,1001.19
2011,11,23,12,21,1001.19
2011,11,23,12,22,1001.22
2011,11,23,12,23,1001.32
2011,11,23,12,24,1001.29
2011,11,23,12,25,1001.29
2011,11,23,12,26,1001.32
2011,11,23,12,27,1001.32
2011,11,23,12,28,1001.22
2011,11,23,12,29,1001.22
2011,11,23,12,30,1001.29
2011,11,23,12,31,1001.22
2011,11,23,12,32,1001.19
2011,11,23,12,33,1001.22
2011,11,23,12,34,1001.29
2011,11,23,12,35,1001.32
2011,11,23,12,36,1001.36
2011,11,23,12,37,1001.32
2011,11,23,12,38,1001.32
2011,11,23,12,39,1001.39
2011,11,23,12,40,1001.42
2011,11,23,12,41,1001.46
2011,11,23,12,42,1001.46
2011,11,23,12,43,1001.46
2011,11,23,12,44,1001.49
2011,11,23,12,45,1001.49
2011,11,23,12,46,1001.49
2011,11,23,12,47,1001.46
2011,11,23,12,48,1001.46
2011,11,23,12,49,1001.52
2011,11,23,12,50,1001.52
2011,11,23,12,51,1001.49
2011,11,23,12,52,1001.49
2011,11,23,12,53,1001.49
2011,11,23,12,54,1001.49
2011,11,23,12,55,1001.56
2011,11,23,12,56,1001.56
2011,11,23,12,57,1001.59
2011,11,23,12,58,1001.63
2011,11,23,12,59,1001.66
2011,11,23,13,00,1001.66
2011,11,23,13,01,1001.63
2011,11,23,13,02,1001.63
2011,11,23,13,03,1001.66
2011,11,23,13,04,1001.69
2011,11,23,13,05,1001.73
2011,11,23,13,06,1001.76
2011,11,23,13,07,1001.73
2011,11,23,13,08,1001.73
2011,11,23,13,09,1001.76
2011,11,23,13,10,1001.73
2011,11,23,13,11,1001.69
2011,11,23,13,12,1001.69
2011,11,23,13,13,1001.69
2011,11,23,13,14,1001.73
2011,11,23,13,15,1001.76
2011,11,23,13,16,1001.73
2011,11,23,13,17,1001.73
2011,11,23,13,18,1001.73
2011,11,23,13,19,1001.73
2011,11,23,13,20,1001.66
2011,11,23,13,21,1001.66
2011,11,23,13,22,1001.69
2011,11,23,13,23,1001.66
2011,11,23,13,24,1001.66
2011,11,23,13,25,1001.69
2011,11,23,13,26,1001.66
2011,11,23,13,27,1001.73
2011,11,23,13,28,1001.69
2011,11,23,13,29,1001.76
2011,11,23,13,30,1001.69
2011,11,23,13,31,1001.73
2011,11,23,13,32,1001.73
2011,11,23,13,33,1001.76
2011,11,23,13,34,1001.76
2011,11,23,13,35,1001.76
2011,11,23,13,36,1001.83
2011,11,23,13,37,1001.76
2011,11,23,13,38,1001.80
2011,11,23,13,39,1001.69
2011,11,23,13,40,1001.73
2011,11,23,13,41,1001.69
2011,11,23,13,42,1001.73
2011,11,23,13,43,1001.76
2011,11,23,13,44,1001.83
2011,11,23,13,45,1001.73
2011,11,23,13,46,1001.76
2011,11,23,13,47,1001.80
2011,11,23,13,48,1001.80
2011,11,23,13,49,1001.83
2011,11,23,13,50,1001.83
2011,11,23,13,51,1001.86
2011,11,23,13,52,1001.86
2011,11,23,13,53,1001.83
2011,11,23,13,54,1001.93
2011,11,23,13,55,1001.97
2011,11,23,13,56,1001.97
2011,11,23,13,57,1001.97
2011,11,23,13,58,1002.03
2011,11,23,13,59,1002.00
2011,11,23,14,00,1002.07
2011,11,23,14,01,1002.10
2011,11,23,14,02,1002.10
2011,11,23,14,03,1002.13
2011,11,23,14,04,1002.10
2011,11,23,14,05,1002.17
2011,11,23,14,06,1002.13
2011,11,23,14,07,1002.10
2011,11,23,14,08,1002.10
2011,11,23,14,09,1002.10
2011,11,23,14,10,1002.13
2011,11,23,14,11,1002.13
2011,11,23,14,12,1002.10
2011,11,23,14,13,1002.13
2011,11,23,14,14,1002.17
2011,11,23,14,15,1002.24
2011,11,23,14,16,1002.20
2011,11,23,14,17,1002.24
2011,11,23,14,18,1002.27
2011,11,23,14,19,1002.24
2011,11,23,14,20,1002.20
2011,11,23,14,21,1002.20
2011,11,23,14,22,1002.27
2011,11,23,14,23,1002.27
2011,11,23,14,24,1002.24
2011,11,23,14,25,1002.27
2011,11,23,14,26,1002.24
2011,11,23,14,27,1002.24
2011,11,23,14,28,1002.20
2011,11,23,14,29,1002.24
2011,11,23,14,30,1002.24
2011,11,23,14,31,1002.27
2011,11,23,14,32,1002.24
2011,11,23,14,33,1002.24
2011,11,23,14,34,1002.24
2011,11,23,14,35,1002.30
2011,11,23,14,36,1002.24
2011,11,23,14,37,1002.27
2011,11,23,14,38,1002.27
2011,11,23,14,39,1002.30
2011,11,23,14,40,1002.30
2011,11,23,14,41,1002.30
2011,11,23,14,42,1002.27
2011,11,23,14,43,1002.27
2011,11,23,14,44,1002.34
2011,11,23,14,45,1002.34
2011,11,23,14,46,1002.30
2011,11,23,14,47,1002.34
2011,11,23,14,48,1002.37
2011,11,23,14,49,1002.34
2011,11,23,14,50,1002.34
2011,11,23,14,51,1002.37
2011,11,23,14,52,1002.41
2011,11,23,14,53,1002.41
2011,11,23,14,54,1002.44
2011,11,23,14,55,1002.41
2011,11,23,14,56,1002.44
2011,11,23,14,57,1002.44
2011,11,23,14,58,1002.47
2011,11,23,14,59,1002.47
2011,11,23,15,00,1002.44
2011,11,23,15,01,1002.47
2011,11,23,15,02,1002.44
2011,11,23,15,03,1002.44
2011,11,23,15,04,1002.47
2011,11,23,15,05,1002.44
2011,11,23,15,06,1002.54
2011,11,23,15,07,1002.44
2011,11,23,15,08,1002.47
2011,11,23,15,09,1002.54
2011,11,23,15,10,1002.57
2011,11,23,15,11,1002.57
2011,11,23,15,12,1002.57
2011,11,23,15,13,1002.61
2011,11,23,15,14,1002.57
2011,11,23,15,15,1002.61
2011,11,23,15,16,1002.57
2011,11,23,15,17,1002.57
2011,11,23,15,18,1002.54
2011,11,23,15,19,1002.57
2011,11,23,15,20,1002.57
2011,11,23,15,21,1002.57
2011,11,23,15,22,1002.54
2011,11,23,15,23,1002.57
2011,11,23,15,24,1002.57
2011,11,23,15,25,1002.61
2011,11,23,15,26,1002.64
2011,11,23,15,27,1002.57
2011,11,23,15,28,1002.64
2011,11,23,15,29,1002.68
2011,11,23,15,30,1002.68
2011,11,23,15,31,1002.68
2011,11,23,15,32,1002.68
2011,11,23,15,33,1002.68
2011,11,23,15,34,1002.74
2011,11,23,15,35,1002.74
2011,11,23,15,36,1002.88
2011,11,23,15,37,1002.95
2011,11,23,15,38,1002.98
2011,11,23,15,39,1003.05
2011,11,23,15,40,1003.08
2011,11,23,15,41,1003.12
2011,11,23,15,42,1003.15
2011,11,23,15,43,1003.15
2011,11,23,15,44,1003.12
2011,11,23,15,45,1003.12
2011,11,23,15,46,1003.25
2011,11,23,15,47,1003.18
2011,11,23,15,48,1003.28
2011,11,23,15,49,1003.29
2011,11,23,15,50,1003.29
2011,11,23,15,51,1003.22
2011,11,23,15,52,1003.29
2011,11,23,15,53,1003.29
2011,11,23,15,54,1003.29
2011,11,23,15,55,1003.25
2011,11,23,15,56,1003.25
2011,11,23,15,57,1003.22
2011,11,23,15,58,1003.25
2011,11,23,15,59,1003.25
2011,11,23,16,00,1003.29
2011,11,23,16,01,1003.32
2011,11,23,16,02,1003.32
2011,11,23,16,03,1003.29
2011,11,23,16,04,1003.29
2011,11,23,16,05,1003.39
2011,11,23,16,06,1003.35
2011,11,23,16,07,1003.52
2011,11,23,16,08,1003.59
2011,11,23,16,09,1003.73
2011,11,23,16,10,1003.62
2011,11,23,16,11,1003.62
2011,11,23,16,12,1003.66
2011,11,23,16,13,1003.73
2011,11,23,16,14,1003.66
2011,11,23,16,15,1003.73
2011,11,23,16,16,1003.69
2011,11,23,16,17,1003.66
2011,11,23,16,18,1003.62
2011,11,23,16,19,1003.66
2011,11,23,16,20,1003.69
2011,11,23,16,21,1003.66
2011,11,23,16,22,1003.69
2011,11,23,16,23,1003.69
2011,11,23,16,24,1003.69
2011,11,23,16,25,1003.69